Weather History for Zanesville, OH

Change the Weather History Date:

Friday, October 26, 2012

  Actual Average Record
Temperature  
Mean Temperature 61 °F 50 °F  
Max Temperature 71 °F 61 °F 84 °F (1963)
Min Temperature 51 °F 39 °F 22 °F (1952)
Degree Days  
Heating Degree Days 4 15  
Month to date heating degree days 266 299  
Since 1 July heating degree days 404 408  
Cooling Degree Days 0 0  
Month to date cooling degree days 6 7  
Year to date cooling degree days 980 766  
Growing Degree Days 10 (Base 50)    
Moisture  
Dew Point 49 °F    
Average Humidity 70    
Maximum Humidity 83    
Minimum Humidity 56    
Precipitation  
Precipitation T in 0.08 in 1.40 in (2010)
Month to date precipitation 1.13 2.18  
Year to date precipitation 28.30 31.71  
Sea Level Pressure  
Sea Level Pressure 30.05 in    
Wind  
Wind Speed 7 mph (North)    
Max Wind Speed 20 mph    
Max Gust Speed 25 mph    
Visibility 10 miles    
Events      
T = Trace of Precipitation, MM = Missing Value Source: NWS Daily Summary

Daily Weather History Graph

Daily Weather History Graph

Search for Another Location

Airport:

Trip Planner

Search our weather history database for the weather conditions in past years. The results will help you decide how hot, cold, wet, or windy it might be!

Date:

Astronomy

Oct. 26, 2012 Rise Set
Actual Time 7:50 AM EDT 6:31 PM EDT
Civil Twilight 7:22 AM EDT 6:59 PM EDT
Nautical Twilight 6:50 AM EDT 7:31 PM EDT
Astronomical Twilight 6:19 AM EDT 8:02 PM EDT
Moon 4:47 PM EDT (10/26) 4:45 AM EDT (10/26)
Length of Visible Light 11h 37m
Length of Day
10h 41m
Waxing Gibbous, 91% of the Moon is Illuminated
Oct 26
Waxing Gibbous
Oct 29
Full
Nov 6
Last Quarter
Nov 13
New
Nov 20
First Quarter

Hourly Weather History & Observations

Time (EDT) Temp. Dew Point Humidity Pressure Visibility Wind Dir Wind Speed Gust Speed Precip Events Conditions
1:53 AM 62.1 °F 46.9 °F 58% 29.99 in 10.0 mi South 8.1 mph - N/A   Clear
2:53 AM 60.1 °F 46.0 °F 60% 29.99 in 10.0 mi South 5.8 mph - N/A   Clear
3:53 AM 59.0 °F 46.0 °F 62% 29.99 in 10.0 mi South 6.9 mph - N/A   Clear
4:53 AM 57.9 °F 46.0 °F 65% 30.01 in 10.0 mi South 3.5 mph - N/A   Clear
5:53 AM 55.9 °F 46.0 °F 69% 30.02 in 10.0 mi SSE 5.8 mph - N/A   Clear
6:53 AM 57.0 °F 46.0 °F 67% 30.03 in 10.0 mi SSE 3.5 mph - N/A   Clear
7:53 AM 54.0 °F 46.0 °F 75% 30.05 in 10.0 mi Calm Calm - N/A   Mostly Cloudy
8:53 AM 57.9 °F 48.0 °F 70% 30.07 in 10.0 mi Calm Calm - N/A   Clear
9:53 AM 62.1 °F 50.0 °F 65% 30.09 in 10.0 mi SSW 4.6 mph - N/A   Clear
10:53 AM 64.9 °F 51.1 °F 61% 30.09 in 10.0 mi Variable 3.5 mph - N/A   Clear
11:53 AM 66.0 °F 52.0 °F 60% 30.10 in 10.0 mi NW 5.8 mph - N/A   Partly Cloudy
12:53 PM 68.0 °F 54.0 °F 61% 30.08 in 10.0 mi Calm Calm - N/A   Partly Cloudy
1:53 PM 70.0 °F 54.0 °F 57% 30.05 in 10.0 mi Variable 3.5 mph - N/A   Clear
2:53 PM 69.1 °F 55.9 °F 63% 30.02 in 10.0 mi North 5.8 mph - N/A   Mostly Cloudy
3:53 PM 64.9 °F 53.1 °F 65% 30.04 in 10.0 mi NNW 13.8 mph - N/A   Clear
4:53 PM 57.9 °F 48.9 °F 72% 30.06 in 10.0 mi NNW 16.1 mph 24.2 mph N/A   Scattered Clouds
5:30 PM 55.4 °F 48.2 °F 77% 30.07 in 10.0 mi North 12.7 mph 20.7 mph N/A   Overcast
5:50 PM 53.6 °F 48.2 °F 82% 30.08 in 10.0 mi NNW 13.8 mph 20.7 mph N/A   Overcast
5:53 PM 53.1 °F 48.0 °F 83% 30.08 in 10.0 mi NNW 11.5 mph 20.7 mph N/A   Overcast
6:53 PM 53.1 °F 46.9 °F 80% 30.09 in 10.0 mi North 12.7 mph 17.3 mph N/A   Overcast
7:53 PM 52.0 °F 46.9 °F 83% 30.09 in 10.0 mi North 9.2 mph - N/A   Overcast
9:50 PM 51.8 °F 46.4 °F 82% 30.08 in 10.0 mi NNE 11.5 mph 19.6 mph N/A   Overcast
9:53 PM 52.0 °F 46.0 °F 80% 30.08 in 10.0 mi North 11.5 mph 19.6 mph N/A   Overcast
10:53 PM 52.0 °F 46.0 °F 80% 30.06 in 10.0 mi NNE 12.7 mph 19.6 mph N/A   Overcast
11:53 PM 51.1 °F 46.0 °F 83% 30.04 in 10.0 mi NNE 10.4 mph - 0.00 in   Overcast